TimeCDT,TemperatureF,Dew PointF,Humidity,Sea Level PressureIn,VisibilityMPH,Wind Direction,Wind SpeedMPH,Gust SpeedMPH,PrecipitationIn,Events,Conditions,WindDirDegrees,DateUTC
12:53 AM,77.0,72.0,84,29.81,8.0,SSE,17.3,28.8,0.15,Rain,Light Rain,150,2013-06-25 05:53:00
1:53 AM,78.1,71.1,79,29.79,10.0,SSE,24.2,34.5,0.01,,Mostly Cloudy,160,2013-06-25 06:53:00
2:53 AM,78.1,69.1,74,29.77,10.0,SSE,20.7,32.2,N/A,,Mostly Cloudy,160,2013-06-25 07:53:00
3:53 AM,78.1,69.1,74,29.76,10.0,SSE,20.7,32.2,N/A,,Overcast,160,2013-06-25 08:53:00
4:53 AM,79.0,68.0,69,29.77,10.0,SSE,20.7,34.5,N/A,,Mostly Cloudy,160,2013-06-25 09:53:00
5:53 AM,77.0,68.0,74,29.77,10.0,SSE,18.4,24.2,N/A,,Mostly Cloudy,160,2013-06-25 10:53:00
6:53 AM,77.0,68.0,74,29.77,10.0,South,19.6,32.2,N/A,,Mostly Cloudy,170,2013-06-25 11:53:00
7:53 AM,78.1,68.0,71,29.75,10.0,South,24.2,31.1,N/A,,Scattered Clouds,170,2013-06-25 12:53:00
8:53 AM,81.0,69.1,67,29.75,10.0,South,25.3,36.8,N/A,,Scattered Clouds,190,2013-06-25 13:53:00
9:53 AM,82.9,70.0,65,29.75,10.0,South,27.6,38.0,N/A,,Scattered Clouds,180,2013-06-25 14:53:00
10:53 AM,86.0,70.0,59,29.73,10.0,South,27.6,39.1,N/A,,Scattered Clouds,190,2013-06-25 15:53:00
11:53 AM,88.0,70.0,55,29.73,10.0,SSW,28.8,36.8,N/A,,Scattered Clouds,200,2013-06-25 16:53:00
12:53 PM,88.0,70.0,55,29.71,10.0,South,29.9,40.3,N/A,,Mostly Cloudy,180,2013-06-25 17:53:00
1:53 PM,93.0,72.0,50,29.70,10.0,South,27.6,40.3,N/A,,Scattered Clouds,190,2013-06-25 18:53:00
2:53 PM,95.0,71.1,46,29.68,10.0,SSW,28.8,41.4,N/A,,Partly Cloudy,200,2013-06-25 19:53:00
3:53 PM,95.0,71.1,46,29.66,10.0,South,28.8,38.0,N/A,,Partly Cloudy,180,2013-06-25 20:53:00
4:53 PM,95.0,71.1,46,29.66,10.0,South,31.1,40.3,N/A,,Scattered Clouds,180,2013-06-25 21:53:00
5:53 PM,95.0,71.1,46,29.65,10.0,South,25.3,33.4,N/A,,Partly Cloudy,190,2013-06-25 22:53:00
6:53 PM,91.9,71.1,50,29.65,10.0,South,25.3,38.0,N/A,,Scattered Clouds,180,2013-06-25 23:53:00
7:53 PM,89.1,72.0,57,29.67,10.0,South,25.3,29.9,N/A,,Mostly Cloudy,170,2013-06-26 00:53:00
8:53 PM,86.0,73.0,65,29.70,10.0,SSE,16.1,25.3,N/A,,Mostly Cloudy,160,2013-06-26 01:53:00
9:24 PM,84.2,73.4,70,29.78,10.0,SSE,11.5,-,N/A,Thunderstorm,Thunderstorm,160,2013-06-26 02:24:00
9:53 PM,82.9,73.0,72,29.75,10.0,South,5.8,-,N/A,,Mostly Cloudy,190,2013-06-26 02:53:00
10:53 PM,82.0,73.0,74,29.76,10.0,South,8.1,-,N/A,,Mostly Cloudy,190,2013-06-26 03:53:00
11:53 PM,79.0,73.0,82,29.77,10.0,South,8.1,-,N/A,,Mostly Cloudy,180,2013-06-26 04:53:00